Simultaneous Nadir Overpasses (SNOs) Predictions

Prediction of SNOs between NOAA-15 and METOP-C Satellite Orbit:

Table of predicted SNOs for the next 14.0 days since TLE Epoch: 11/3/2020
Index Date (NOAA-15) Time (NOAA-15) Lat,Lon (NOAA-15) SZA (NOAA-15 ) Date (METOP-C) Time (METOP-C) Lat,Lon (METOP-C) SZA (METOP-C ) Distance(km) Time Diff (sec)
1 11/16/2020 21:18:56 -80.96, 76.67 78.02 11/16/2020 21:17:46 -80.95, 76.80 78.05 2.53 70
2 11/16/2020 22:09:30 80.94,-115.56 102.01 11/16/2020 22:08:26 80.96,-115.72 101.98 3.38 64
3 11/16/2020 22:59:58 -80.96, 51.55 78.00 11/16/2020 22:59:07 -80.96, 51.69 78.00 2.50 51
4 11/16/2020 23:50:33 80.95,-141.04 102.02 11/16/2020 23:49:48 80.95,-141.19 101.98 2.68 45
5 11/17/2020 00:41:01 -80.97, 26.06 78.00 11/17/2020 00:40:29 -80.96, 26.21 78.00 2.80 32
6 11/17/2020 01:31:35 80.95,-166.16 102.04 11/17/2020 01:31:09 80.96,-166.30 102.03 3.08 26
7 11/17/2020 02:22:03 -80.96, 0.94 77.97 11/17/2020 02:21:50 -80.97, 1.10 77.96 2.81 13
8 11/17/2020 03:12:38 80.96, 168.35 102.05 11/17/2020 03:12:31 80.96, 168.22 102.03 2.32 7
